Weather observations for the past three days for
Pohnpei - NWS Office
Imperial (Metric)
Date Time (+11) Wind (mph) Vis. (mi.) Weather Sky Cond. Temperature (ºF) Relative Humidity Wind Chill (°F) Heat Index (°F) Pressure Precipitation (in)
Air Dwpt 6 hour altimeter (in) sea level (mb) 1 hr 3 hr 6 hr
Max. Min.
07 17:50 E 9 10.00 Overcast BKN017TCU OVC120 80.8 77.2 89% 88 29.74 1007.2
07 16:50 E 8 G 20 10.00 Light Showers Rain BKN017TCU OVC120 81.3 75.9 82 80.2 84% 88 29.72 1006.4 0.1
07 16:10 NE 9 8.00 Light Showers Rain OVC017TCU 81 76.3 86% 87 29.72 1006.4
07 14:51 E 13 G 40 8.00 Light Showers Rain OVC017TCU 80.2 76.5 88% 86 29.73 1006.7
07 13:51 E 13 G 28 10.00 Light Showers Rain OVC017TCU 80.6 75.2 84% 86 29.8 1009.0 0.07
07 12:59 E 7 10.00 Light Showers Rain BKN017TCU OVC120 81 75.9 85% 87 29.76 1007.7
07 11:55 N 9 10.00 Overcast SCT017 OVC120 82 77.5 86% 91 29.79 1008.6
07 10:50 E 9 9.00 Overcast SCT017 OVC120 80.6 76.1 80.6 77 86% 87 29.8 1009.2 0.14
07 09:50 NE 6 7.00 Light Rain SCT017TCU OVC120 78.8 77.2 95% 83 29.82 1009.9
07 08:55 SE 3 14.00 Light Rain BKN017TCU OVC120 79.2 77.4 94% 84 29.84 1010.3
07 07:52 SE 3 14.00 Light Rain BKN017TCU OVC120 77.9 76.6 96% 80 29.83 1010.2 0.1
07 06:55 SE 3 14.00 Light Rain BKN017TCU OVC120 77.9 76.6 96% 80 29.83 1010.0
07 05:55 SE 3 14.00 Light Rain BKN017TCU OVC120 77 74.3 91% 78 29.81 1009.3
07 04:55 SE 6 14.00 Light Rain BKN017TCU OVC120 77.4 74.3 78.6 76.8 90% 79 29.79 1008.6 0.5
07 03:55 SE 3 14.00 Light Rain BKN017TCU OVC120 76.8 75.7 96% 77 29.78 1008.4
07 02:55 SE 3 14.00 Light Rain BKN017TCU OVC120 77.2 76.3 97% 78 29.78 1008.5
07 01:55 SE 5 14.00 Light Rain BKN017TCU OVC120 77.4 76.1 96% 79 29.8 1009.2 0.34
07 00:55 SE 3 14.00 Light Rain BKN017TCU OVC120 78.4 76.1 93% 82 29.84 1010.4
06 23:50 SE 6 14.00 Light Rain BKN017TCU OVC120 78.6 76.1 92% 82 29.85 1010.9
06 22:52 SE 3 14.00 Light Rain BKN017TCU OVC120 77 75.7 79.2 77 96% 78 29.84 1010.3 0.71
06 21:50 SE 5 15.00 Overcast BKN018TCU OVC130 77.4 74.3 90% 79 29.84 1010.5
06 20:55 SE 6 14.00 Light Showers Rain BKN017TCU OVC120 79 76.6 93% 83 29.84 1010.4
06 19:52 SE 6 14.00 Light Showers Rain BKN017TCU OVC120 78.8 76.3 92% 83 29.83 1010.2 0.49
06 18:52 SE 6 14.00 Light Showers Rain BKN017TCU OVC120 77 76.5 98% 78 29.8 1009.1
06 17:55 SE 10 G 22 14.00 Showers Rain BKN017TCU BKN130 OVC300 77.4 76.5 97% 79 29.8 1009.0
06 16:50 SE 5 G 22 14.00 Light Showers Rain BKN017TCU BKN130 OVC300 79.2 76.5 90.7 79.2 91% 84 29.76 1007.7 0.14
06 15:52 NE 6 15.00 Overcast BKN017TCU BKN130 OVC300 86.4 76.5 72% 97 29.75 1007.4
06 14:53 E 5 15.00 Overcast SCT017TCU BKN130 OVC300 86.2 77 74% 97 29.76 1007.6
06 13:51 E 6 15.00 Light Showers Rain SCT017TCU BKN130 OVC300 82.4 77.9 86% 92 29.77 1008.2 0.02
06 12:57 E 8 15.00 Overcast SCT017TCU BKN130 OVC300 87.8 77.5 72% 101 29.78 1008.5
06 11:54 E 5 15.00 Overcast SCT017TCU BKN130 OVC300 90.7 75.4 61% 102 29.8 1009.1
06 10:53 E 6 15.00 Overcast SCT017TCU BKN130 OVC300 86.4 78.3 87.1 78.6 77% 99 29.81 1009.5 0.02
06 09:55 E 2 15.00 Overcast SCT017 BKN130 OVC300 87.1 77 72% 99 29.81 1009.6
06 08:55 NE 5 15.00 Overcast SCT017TCU BKN130 OVC300 84.2 78.3 82% 95 29.81 1009.6
06 06:50 E 5 15.00 Overcast BKN017TCU BKN130 OVC300 83.3 76.6 80% 92 29.79 1008.6
06 05:55 E 3 15.00 Overcast BKN017TCU BKN130 OVC300 79.2 77.2 94% 84 29.77 1008.1
06 04:50 E 5 15.00 Overcast BKN017TCU BKN130 OVC300 78.6 77.5 80.2 78.4 97% 82 29.77 1008.1
06 03:52 Calm 14.00 Overcast BKN017TCU BKN130 OVC300 78.4 77.9 98% 82 29.77 1008.2
06 01:53 Calm 14.00 Overcast BKN017TCU BKN130 OVC300 78.6 77.9 98% 82 29.79 1008.9
06 00:54 E 3 14.00 Overcast BKN017TCU BKN130 OVC300 78.8 77.7 97% 83 29.83 1010.0
05 23:53 E 3 12.00 Overcast BKN017TCU OVC120 78.8 77.5 96% 83 29.86 1011.0
05 22:54 E 9 12.00 Overcast BKN017CB OVC120 80.2 78.1 85.1 80.2 93% 87 29.87 1011.5 0.19
05 21:53 SE 8 G 23 12.00 Overcast BKN017CB OVC120 82.4 77.2 84% 91 29.87 1011.3
05 20:54 E 10 12.00 Overcast BKN017CB OVC120 81.5 77.9 89% 90 29.85 1010.7
05 19:55 E 10 2.00 Heavy Showers Rain BKN017CB OVC120 83.3 78.4 85% 94 29.83 1010.2
05 18:53 E 8 12.00 Overcast BKN018TCU OVC130 84.2 79.3 85% 97 29.81 1009.5
05 17:50 NE 8 G 21 10.00 Overcast BKN018TCU OVC130 85.1 77.9 79% 97 29.78 1008.5
05 16:53 E 8 15.00 Overcast BKN018TCU OVC130 85.1 79.2 87.4 84.2 82% 98 29.77 1008.0 0.04
05 15:52 E 6 15.00 Overcast BKN018TCU OVC130 84.2 79.3 85% 97 29.76 1007.9
05 14:50 NE 8 15.00 Overcast BKN018TCU OVC130 87.4 80.8 81% 105 29.77 1008.2
05 13:55 SE 8 15.00 Overcast BKN018TCU OVC130 86.4 79.2 79% 100 29.78 1008.5
05 12:55 SE 5 14.00 Light Rain BKN018TCU OVC130 86.4 78.6 78% 100 29.8 1009.0
05 11:55 SE 6 15.00 Overcast BKN018TCU OVC130 86 76.1 72% 96 29.81 1009.4
05 10:55 SE 13 G 28 15.00 Overcast BKN018TCU OVC130 84.6 76.8 84.6 74.7 78% 95 29.81 1009.3 0.01
05 09:55 SE 12 G 18 15.00 Overcast BKN017TCU OVC120 82.2 78.8 89% 92 29.81 1009.4
05 08:52 SE 5 15.00 Light Rain BKN017TCU OVC120 82 78.8 90% 92 29.8 1009.1
05 07:54 N 7 15.00 Overcast BKN017TCU OVC120 82.4 77.5 85% 91 29.8 1009.2
05 06:57 NE 6 15.00 Overcast BKN017TCU OVC120 80.6 77.5 90% 87 29.79 1008.8
05 05:54 E 3 15.00 Overcast BKN017TCU OVC120 77 74.7 93% 78 29.79 1008.9
05 04:56 Calm 10.00 Overcast BKN017TCU OVC120 74.7 73.6 77 73.9 96% 29.79 1008.7 0.34
05 03:52 Calm 10.00 Overcast BKN017TCU OVC120 74.1 73.4 98% 29.78 1008.5
05 02:55 Calm 10.00 Overcast BKN017TCU OVC120 74.1 73.4 98% 29.81 1009.5
05 01:56 Calm 7.00 Light Showers Rain BKN017TCU OVC120 74.8 73.8 96% 29.85 1010.8 2.11
05 00:54 Calm 7.00 Light Showers Rain BKN017TCU OVC120 73.9 73.2 98% 29.89 1012.2
04 23:56 Calm 10.00 Overcast BKN017TCU OVC120 77 76.5 98% 78 29.89 1012.0
04 22:52 E 3 6.00 Light Showers Rain BKN017TCU OVC120 76.8 75.7 78.8 76.3 96% 77 29.9 1012.5 2.11
04 21:56 Calm 6.00 Light Showers Rain BKN017CB OVC120 76.3 74.5 94% 76 29.88 1011.9
04 20:57 E 7 5.00 Light Showers Rain BKN017CB OVC120 77.4 76.3 96% 79 29.88 1011.9
04 19:53 E 6 7.00 Light Showers Rain BKN017CB OVC120 77.4 76.3 96% 79 29.83 1010.2 1.69
04 18:55 E 7 5.00 Light Showers Rain OVC016CB 77 75.7 96% 78 29.84 1010.3
Date Time (+11) Wind (mph) Vis. (mi.) Weather Sky Cond. Air Dwpt Max. Min. Relative Humidity Wind Chill (°F) Heat Index (°F) altimeter (in) sea level (mb) 1 hr 3 hr 6 hr
6 hour
Temperature (ºF) Pressure Precipitation (in)